Weather History for PFYU - October, 2012

Change the Weather History Date:

Friday, October 26, 2012

  Actual Average Record
Temperature  
Mean Temperature 8 °F -  
Max Temperature 10 °F 15 °F 33 °F (2002)
Min Temperature 6 °F 2 °F -40 °F (1996)
Degree Days  
Heating Degree Days 57    
Moisture  
Dew Point 6 °F    
Average Humidity 90    
Maximum Humidity 92    
Minimum Humidity 85    
Precipitation  
Precipitation 0.00 in - - ()
Sea Level Pressure  
Sea Level Pressure 30.44 in    
Wind  
Wind Speed 0 mph (NE)    
Max Wind Speed 4 mph    
Max Gust Speed -    
Visibility 9 miles    
Events      
Averages and records for this station are not official NWS values.
T = Trace of Precipitation, MM = Missing Value Source: NWS Daily Summary

Daily Weather History Graph

Daily Weather History Graph

Search for Another Location

Airport or City:

Trip Planner

Search our weather history database for the weather conditions in past years. The results will help you decide how hot, cold, wet, or windy it might be!

Date:

Astronomy

Oct. 26, 2012 Rise Set
Actual Time 9:20 AM AKDT 5:27 PM AKDT
Civil Twilight 8:23 AM AKDT 6:25 PM AKDT
Nautical Twilight 7:21 AM AKDT 7:26 PM AKDT
Astronomical Twilight 6:20 AM AKDT 8:27 PM AKDT
Moon 4:36 PM AKDT (10/26) 5:26 AM AKDT (10/26)
Length of Visible Light 10h 01m
Length of Day
8h 06m
Waxing Gibbous, 92% of the Moon is Illuminated
Oct 26
Waxing Gibbous
Oct 29
Full
Nov 6
Last Quarter
Nov 13
New
Nov 20
First Quarter

Hourly Weather History & Observations

Time (AKDT) Temp. Windchill Dew Point Humidity Pressure Visibility Wind Dir Wind Speed Gust Speed Precip Events Conditions
12:36 AM - - - N/A% 30.50 in 10.0 mi North - - N/A   Scattered Clouds
12:56 AM - - - N/A% 30.49 in 10.0 mi North - - N/A   Overcast
1:16 AM - - - N/A% 30.50 in 10.0 mi North - - N/A   Overcast
1:36 AM - - - N/A% 30.50 in 10.0 mi North - - N/A   Overcast
1:56 AM - - - N/A% 30.50 in 10.0 mi North - - N/A   Overcast
2:16 AM - - - N/A% 30.49 in 10.0 mi North - - N/A   Overcast
2:36 AM - - - N/A% 30.49 in 10.0 mi North - - N/A   Overcast
2:56 AM - - - N/A% 30.48 in 10.0 mi North - - N/A   Overcast
3:16 AM - - - N/A% 30.48 in 10.0 mi North - - N/A   Overcast
3:36 AM - - - N/A% 30.48 in 10.0 mi North - - N/A   Overcast
3:56 AM - - - N/A% 30.48 in 10.0 mi North - - N/A   Overcast
4:16 AM - - - N/A% 30.48 in 10.0 mi North - - N/A   Overcast
4:36 AM - - - N/A% 30.47 in 10.0 mi North - - N/A   Overcast
4:56 AM - - - N/A% 30.47 in 10.0 mi North - - N/A   Overcast
5:16 AM - - - N/A% 30.47 in 10.0 mi North - - N/A   Overcast
5:36 AM - - - N/A% 30.47 in 10.0 mi North - - N/A   Overcast
5:56 AM - - - N/A% 30.46 in 10.0 mi North - - N/A   Overcast
6:16 AM - - - N/A% 30.45 in 10.0 mi North - - N/A   Overcast
6:36 AM - - - N/A% 30.45 in 10.0 mi North - - N/A   Overcast
6:56 AM - - - N/A% 30.46 in 10.0 mi North - - N/A   Overcast
7:16 AM - - - N/A% 30.46 in 10.0 mi North - - N/A   Overcast
7:36 AM - - - N/A% 30.46 in 10.0 mi North - - N/A   Overcast
7:56 AM - - - N/A% 30.47 in 10.0 mi North - - N/A   Overcast
8:16 AM - - - N/A% 30.45 in 10.0 mi North - - N/A   Overcast
8:36 AM - - - N/A% 30.45 in 10.0 mi North - - N/A   Overcast
8:56 AM - - - N/A% 30.45 in 10.0 mi North - - N/A   Overcast
9:16 AM - - - N/A% 30.45 in 10.0 mi North - - N/A   Overcast
9:36 AM - - - N/A% 30.45 in 10.0 mi North - - N/A   Overcast
9:56 AM - - - N/A% 30.44 in 8.0 mi North - - N/A   Overcast
10:16 AM - - - N/A% 30.44 in 10.0 mi North - - N/A   Overcast
10:36 AM - - - N/A% 30.45 in 10.0 mi North - - N/A   Overcast
10:56 AM - - - N/A% 30.45 in 10.0 mi North - - N/A   Overcast
11:16 AM - - - N/A% 30.45 in 10.0 mi Calm Calm - N/A   Overcast
11:36 AM 6.8 °F - 3.2 °F 85% 30.46 in 10.0 mi Calm Calm - N/A   Overcast
11:56 AM 6.8 °F - 3.2 °F 85% 30.46 in 10.0 mi Calm Calm - N/A   Overcast
12:16 PM 6.8 °F - 5.0 °F 92% 30.45 in 10.0 mi Calm Calm - N/A   Overcast
12:36 PM 6.8 °F - 5.0 °F 92% 30.45 in 10.0 mi Calm Calm - N/A   Overcast
12:56 PM 8.6 °F - 5.0 °F 85% 30.45 in 10.0 mi Calm Calm - N/A   Overcast
1:16 PM 6.8 °F - 3.2 °F 85% 30.45 in 10.0 mi Calm Calm - N/A   Overcast
1:36 PM 8.6 °F - 6.8 °F 92% 30.45 in 10.0 mi Calm Calm - N/A   Overcast
1:56 PM 8.6 °F - 6.8 °F 92% 30.44 in 10.0 mi Calm Calm - N/A   Overcast
2:16 PM 8.6 °F - 5.0 °F 85% 30.44 in 8.0 mi Calm Calm - N/A   Overcast
2:36 PM 8.6 °F - 6.8 °F 92% 30.44 in 10.0 mi Calm Calm - N/A   Overcast
2:56 PM 8.6 °F - 6.8 °F 92% 30.44 in 10.0 mi Calm Calm - N/A   Overcast
3:16 PM 8.6 °F - 6.8 °F 92% 30.43 in 10.0 mi Calm Calm - N/A   Overcast
3:36 PM 8.6 °F - 6.8 °F 92% 30.43 in 10.0 mi Calm Calm - N/A   Overcast
3:56 PM 8.6 °F - 6.8 °F 92% 30.43 in 10.0 mi Calm Calm - N/A   Overcast
4:16 PM 8.6 °F - 6.8 °F 92% 30.43 in 10.0 mi Calm Calm - N/A   Overcast
4:36 PM 10.4 °F - 6.8 °F 85% 30.42 in 10.0 mi Calm Calm - N/A   Overcast
4:56 PM 8.6 °F - 6.8 °F 92% 30.41 in 10.0 mi Calm Calm - N/A   Overcast
5:16 PM 10.4 °F - 6.8 °F 85% 30.41 in 10.0 mi Calm Calm - N/A   Overcast
5:36 PM 10.4 °F - 6.8 °F 85% 30.41 in 10.0 mi Calm Calm - N/A   Overcast
5:56 PM 8.6 °F - 6.8 °F 92% 30.41 in 10.0 mi Calm Calm - N/A   Overcast
6:16 PM 8.6 °F - 6.8 °F 92% 30.41 in 10.0 mi Calm Calm - N/A   Overcast
6:36 PM 8.6 °F - 6.8 °F 92% 30.41 in 9.0 mi Calm Calm - N/A   Overcast
6:56 PM 8.6 °F 2.0 °F 6.8 °F 92% 30.40 in 10.0 mi NE 3.5 mph - N/A   Overcast
7:16 PM 8.6 °F - 6.8 °F 92% 30.40 in 10.0 mi Calm Calm - N/A   Overcast
7:36 PM 8.6 °F - 6.8 °F 92% 30.40 in 10.0 mi Calm Calm - N/A   Overcast
7:56 PM 8.6 °F - 5.0 °F 85% 30.40 in 10.0 mi Calm Calm - N/A   Overcast
8:16 PM 8.6 °F - 6.8 °F 92% 30.39 in 10.0 mi Calm Calm - N/A   Overcast
8:36 PM 8.6 °F - 6.8 °F 92% 30.40 in 8.0 mi Calm Calm - N/A   Overcast
8:56 PM 8.6 °F - 6.8 °F 92% 30.39 in 5.0 mi Calm Calm - N/A   Overcast
9:36 PM 8.6 °F - 6.8 °F 92% 30.39 in 5.0 mi Calm Calm - N/A   Overcast
9:56 PM 8.6 °F - 6.8 °F 92% 30.39 in 4.0 mi Calm Calm - N/A   Overcast
10:16 PM 8.6 °F 2.0 °F 6.8 °F 92% 30.38 in 5.0 mi NE 3.5 mph - N/A   Overcast
10:36 PM 8.6 °F - 6.8 °F 92% 30.38 in 7.0 mi Calm Calm - N/A   Overcast
10:56 PM 8.6 °F - 6.8 °F 92% 30.37 in 7.0 mi Calm Calm - N/A   Overcast
11:16 PM 8.6 °F - 6.8 °F 92% 30.37 in 7.0 mi Calm Calm - N/A   Overcast
11:36 PM 8.6 °F 2.0 °F 6.8 °F 92% 30.37 in 8.0 mi NE 3.5 mph - N/A   Overcast
11:56 PM 8.6 °F - 6.8 °F 92% 30.37 in 8.0 mi Calm Calm - N/A   Overcast